Timeline UpdatesTrip UpdatesNews PostsPvt Posts♥♥Travel TipsAdmin PostsConv PostsFollowed PostsChat RequestsBlog PostsPNR Posts

Disclaimer
Search
 
 
Sun Oct 26, 2014 13:59:03 ISTHomeTrainsΣChainsAtlasPNRForumGalleryNewsFAQTripsMembersLoginFeedback
No Recent News for this Train
Other Trains in the News **new
Latest...
From 11.09.2013 to 9.11.2013........19024 Firozpur Janata Express will be terminated at Dadar.
Thu Sep 05, 2013 (07:07PM)
⇐ Return Journey: Train# 19023

19024/Firozpur - Mumbai Central Janta Express

Time-Table HAS CHANGED.
Sep 03 2014 (12:50PM)
Change Departure Station:
Change Arrival Station:
Post a Train Travel TipPost a Train Travel Tip **new
Post a Comment/Question/Picture/VideoPost a Comment/Question/Picture/Video
Inaugural Run
Mon Oct 01, 1956
Pantry/Catering
✕ NO Pantry Car
✓ Catering Avbl
Catering from local vendors
RSA - Rake Sharing
Dedicated Rake.No RSA
Rake/Coach Composition
LOCO<SLR,GS,GS(MST),GS,S-1, S-2, S-3, S-4, S-5, S-6, S-7, S-8,GS,SLR,HCPV=14+1
Loco
TKD WDP-4/4B between FZR-NDLS, GZB WAP5 between NDLS-BCT
News    PNR    Forum    Time-Table    Availability    Fare Chart    Map    Arr/Dep History    Trips    Gallery    ΣChains    X/O    Timeline    
Travel Time: 7h 48m    22 halts    Distance: 316 km    Avg Speed: 40 km/hr
Type: Mail/Express
Zone: WR/Western
Departs @ 11:58 (Avg 22m late)
Platform# 2
SMTWTFS
Bharuch Junction/BH 
Arrives @ 19:46 (Avg 2m late)
Platform# 5
SMTWTFS
Mumbai Dadar Western/DDR 

22 halts. 65 intermediate Stations between Bharuch Junction and Mumbai Dadar Western

Show ALL intermediate Stations  Show Old Time-Table

#TrkCodeStation NameX/OArrivesAvgDepartsAvgHaltPFDay#KmSpeedElevZoneAddress
1|--|FZRFirozpur Cantt. Junction (5)  -05:10 05:05+1011-1450.777200mNRFirozpur Cantt 152001, Punjab
2|--|FDKFaridkot (3)  05:34 05:30+1905:36 05:32+192m11-1418.548202mNRFaridkot, Punjab
3|--|KKPKot Kapura Junction (3)  05:50 05:48+1705:52 05:50+172m11-1405.7750mNRKotkapura, Punjab
4|--|GJUTGangsar Jaitu (3)  06:07 06:03+1806:09 06:05+182m11-1389.447207mNRJaitu, Punjab
5|--|GNAGoneana Bhai Jagta (3)X  06:23+1506:25+162m11-1375.334206mNRGoniana, Punjab
6|--|BTIBathinda Junction (6)  06:55 06:47+807:05 07:00+1110 13m21-1363.089208mNRBathinda, Punjab
7!==!MAURMaur  07:31 07:24+2407:33 07:26+242m--1-1327.467220mNRMaur Mandi, Punjab
8!==!KTKLKotli Kalan  07:39 07:35-07:41 07:36-2 1m--1-1317.327219mNRState Highway 12A, Punjab
9!==!MSZMansa  07:54 07:55+1607:56 07:57+162m--1-1308.781222mNRMansa, Punjab
10!==!BLZBudhlada  08:09+2108:11+222m--1-1292.671223mNRBudhlada, Punjab
11!==!BRZBareta  08:24+2308:26+232m--1-1277.257223mNRBareta, Punjab
12!==!JHLJakhal Junction  08:43 08:41+2208:45 08:43+232m--1-1263.056225mNRJakhal, Haryana
13|==|TUNTohana (2)  08:56+2508:58+252m--1-1250.876232mNRTohana, Haryana
14|==|NRWNarwana Junction (4)X  09:18+2609:20+262m--1-1225.370235mNRWay to Narwana, Haryana
15|==|UCAUchana  09:33+2809:35+272m--1-1210.145225mNRDistrict Jind, Haryana
16|==|JINDJind Junction (3)  10:00+2210:05+215m--1-1191.481222mNRJind 126102, Haryana
17|==|JNAJulana  10:27 10:24+2710:29 10:26+272m--1-1165.865226mNRJulana, Haryana
18|==|ROKRohtak Junction (3)  11:05 10:55+2511:08 11:00+243 5m--1-1134.381220mNRRohtak, Haryana
19/==/ISMIsmaila Haryana  11:26 11:14-11:28 11:16-2m--1-1115.542221mNRNational Highway 10, Haryana
20/==/SPZSampla  11:32 11:21+3011:34 11:23+302m--1-1112.072222mNRSampla, Haryana
21/==/BGZBahadurgarhX  11:49 11:38+3111:51 11:40+312m--1-1094.158220mNRBahadurgarh, Haryana
22/==/NNONangloi  12:03 11:53+3312:05 11:55+362m--1-1081.628219mNRJJ Colony No 1, Delhi NCT
23/==/MGLPMangolpuri  12:09 12:02-12:11 12:04-2m--1-1078.421217mNROutter Ring Rd, Delhi NCT
24/==/SSBShakur BastiX  12:21 12:16+2912:23 12:18+302m--1-1074.132216mNRPitampura, Delhi NCT
25/==/DKZDelhi KishanGanj (2)  12:36 12:31+3512:38 12:33+352m--1-1067.211220mNRSarai Rohilla, Delhi NCT
26/==/NDLSNew Delhi (16)XO13:05 12:55+3613:35 13:25+3730m71-1063.325215mNRNew Delhi, Delhi NCT
27/==/NZMDelhi Hazrat Nizamuddin (7)XO  13:49 13:43+4013:51 13:45+422m11-1055.932209mNRNew Delhi 110013, Delhi NCT
28/==/OKAOkhla (4)  13:57 13:52+4113:59 13:53+412 1m--1-1052.260221mNRIshwar Nagar Mathura Road, Delhi NCT
29/==/TKDTuglakabad (2)XO  14:06 13:59+4414:08 14:01+432m11-1046.244213mNRNear Tughlakabad Metro Station, Delhi NCT
30/==/FDBFaridabad (4)  14:23 14:16+3414:25 14:18+382m31-1035.144206mNRold Faridabad, Haryana
31/==/BVHBallabgarh (5)X  14:43 14:29+3114:45 14:31+312m--1-1027.027203mNRFaridabad, Haryana
32/==/PWLPalwal (8)  15:18+1615:20+162m--1-1005.985200mNRPalwal, Haryana
33/==/KSVKosi Kalan (3)X  15:50+4115:52+432m21-963.447189mNCRKosi Kalan, Uttar Pradesh
34/==/CHJChata (4)XO  16:03 16:05+4416:05 16:07+452m--1-953.135 NCRChhata, Uttar Pradesh
35/==/MTJMathura Junction (10)  17:00+2717:05+335m31-921.980179mNCRMathura, Uttar Pradesh
36/==/BTEBharatpur Junction (5)O  17:30+4017:35+415m31-888.472174mWCRBharatpur, Rajasthan
37/==/BXNBayana Junction (3)X  18:10+3618:15+355m--1-846.491198mWCRBayana, Rajasthan
38/==/FSPFateh SinghpuraX  18:28+3918:30+432m--1-826.844223mWCRState Highway 1, Rajasthan
39/==/HANHindaun City (2)  18:48+3718:50+432m--1-813.561230mWCRKarauli, Rajasthan
40/==/SMBJShri Mahabirji (3)X  19:00+4219:02+422m--1-803.454240mWCRKarauli, Rajasthan
41/==/GGCGangapur City (3)  19:50 19:40+3419:55 19:45+415m21-769.368270mWCRGangapur, Rajasthan
42/==/NNWNarayanpur Tatwara (2)  20:11 20:00+4320:12 20:02+431 2m--1-752.363256mWCRSawai Madhopur, Rajasthan
43/==/MLZMalarnaXO  20:40 20:18+3920:42 20:20+402m21-735.540236mWCRSawai Madhopur, Rajasthan
44/==/SWMSawai Madhopur Junction (4)  21:05+3321:10+405m21-705.478266mWCRSawai Madhopur, Rajasthan
45/==/IDGIndargarh Sumerganj Mandi (2)  21:35 21:38+4121:37 21:40+432m--1-669.166247mWCRIndargarh, Rajasthan
46/==/LKELakheri (3)X  21:47 21:50+4321:49 21:52+472m--1-658.144228mWCRBundi, Rajasthan
47/==/KOTAKota Junction (5)  23:10 23:15+5823:20+1:0310 5m21-597.568256mWCRKota, Rajasthan
48/==/RMARamganj Mandi Junction (3)X  00:23+1:0200:25+1:042m--2-526.357358mWCRRamganj Mandi, Rajasthan
49/==/JHWJhalawar Road (3)XO  00:38+1:0300:40+1:042m--2-513.930361mWCRJhalawar City, Rajasthan
50/==/BWMBhawani Mandi (3)X  01:13+4901:15+532m--2-497.474384mWCRBhawani Mandi, Madhya Pradesh
51/==/SGZShamgarh (3)  01:42+5301:47+545m--2-463.950463mWCRMandsaur, Madhya Pradesh
52/==/SVASuwasra (2)O  02:03+5102:05+522m--2-450.540450mWCRSuwasra, Madhya Pradesh
53/==/CMUChau Mahla (3)  02:28+4202:30+442m12-435.120426mWCRJhalawar, Rajasthan
54/==/VMAVikramgarh Alot (2)X  03:36+703:38+82m12-413.340443mWCRKota Division, Madhya Pradesh
55/==/MEPMahidpur Road  04:13 04:14-104:15+32 1m--2-389.441493mWCRGogapur, Madhya Pradesh
56/==/NADNagda Junction (4)X  04:40+204:45+75m--2-372.464468mWRNagda, Madhya Pradesh
57/==/KUHKhachrod (2)X  04:56 04:58+904:58 05:00+102m--2-358.637497mWRUjjain, Madhya Pradesh
58/==/RTMRatlam Junction (7)X  05:45+206:00+615m42-330.973495mWRRatlam 457001, Madhya Pradesh
59/==/BMIBamnia (2)  06:35 06:37+1206:37 06:38+132 1m--2-286.272392mWRBamnia, Madhya Pradesh
60/==/THDRThandla Road (2)  06:59 07:01+1407:01 07:02+142 1m--2-258.660317mWRJhabua, Madhya Pradesh
61/==/MGNMeghnagar (3)  07:08 07:10+1507:10 07:12+152m--2-250.686317mWRJhabua, Madhya Pradesh
62/==/DHDDahod (3)X  07:35+2207:40+225m--2-217.568313mWRDahod, Gujarat
63/==/LMKLimkheda  08:07 08:09+2308:09 08:10+232 1m--2-184.660205mWRLimkheda, Gujarat
64/==/PPDPiplod Junction  08:16 08:18+2208:18 08:19+222 1m--2-176.679209mWRPiplod, Gujarat
65/==/SATSant Road (2)X  08:26 08:28+2408:28 08:29+242 1m22-164.820169mWROrwara, Gujarat
66/==/GDAGodhra Junction (3)X  09:29 09:30+109:34 09:35+35m12-144.479122mWRGodhra, Gujarat
67/==/DRLDerol  09:53+709:55+72m--2-120.87981mWRKalol, Gujarat
68/==/SMLASamlaya Junction (3)  10:13+710:15+72m--2-97.15367mWRVadodara, Gujarat
69/==/BRCVadodara Junction (7)X10:45+1310:55+1210m12-70.58936mWRVadodara 390005, Gujarat
70/==/MYGMiyagam Karjan (2)  11:15+2311:17+222m22-40.78329mWRKarjan, Gujarat
71/==/PLJPalej (4)  11:28+2111:30+222m--2-25.48029mWRPalej, Gujarat
72/==/NIUNabipur (3)X  11:40+2711:42+252m--2-12.15224mWRNabipur, Gujarat
73/==/BHBharuch Junction (5)»X  11:56+2011:58+222m220.06219mWRBharuch, Gujarat
74/==/AKVAnkleshwar Junction (4)O  12:07+1812:09+182m229.34819mWRAnkleshwar, Gujarat
75/==/PAOPanoli (3)  12:22+1912:24+202m--219.66229mWRPanoli, Gujarat
76/==/KSBKosamba Junction (3)XO  12:32+2012:34+202m2227.95830mWRKosamba, Gujarat
77/==/KIMKim (2)O  12:42+2012:44+182m--235.73118mWRNH 8, Gujarat
78/==/STSurat (4)X  13:30+813:35+95m2259.37119mWRSurat 395001, Gujarat
79/==/MRLMaroli (3)O  13:53+1913:55+192m2280.44615mWRMaroli, Gujarat
80/==/NVSNavsari (3)  14:06+1614:08+182m2288.95514mWRNavsari, Gujarat
81/==/AMLAmalsad (3)O  14:25+1714:27+182m22104.53712mWRAmalsad, Gujarat
82/==/BIMBilimora Junction (4)XO  14:36+1614:38+172m22110.13611mWRBilimora, Gujarat
83/==/BLValsad (3)X  15:08+1015:10+162m32128.04915mWRValsad, Gujarat
84/==/PADPardi (3)X  15:24 15:23+1415:26 15:25+142m--2138.74519mWRValsad, Gujarat
85/==/UVDUdvada (3)  15:33+1315:35+132m--2144.65218mWRUdvada, Gujarat
86/==/VAPIVapi (3)X  15:46+915:48+182m22154.23427mWRVapi, Gujarat
87/==/BLDBhilad (3)XO  16:08+1416:10+142m--2165.56933mWRBhilad, Gujarat
88/==/SJNSanjan (3)XO  16:20+1416:22+142m--2177.15422mWRSanjan, Gujarat
89/==/UBRUmbargam Road (3)X  16:28+1516:30+162m--2182.44730mWRUmbergaon, Gujarat
90/==/DRDDahanu Road (5)XO  16:56+716:58+92m--2202.77412mWRDahanu, Maharashtra
91/==/VGNVangaon (3)O  17:08+1017:10+102m--2215.07111mWRDist. Palghar, Maharashtra
92/==/BORBoisar (3)XO  17:18+817:20+82m32224.56117mWRBoisar Tel.no-02525-266626, Maharashtra
93/==/PLGPalghar (3)XO  17:31+617:33+62m22235.75719mWRPalghar, Maharashtra
94/==/VRVirar (8)XO  18:06+418:08+52m42266.9526mWRDist. Palghar, Maharashtra
95/==/BVIMumbai Borivali (8)  18:38+218:40+32m52292.72219mWRMumbai - 400092, Maharashtra
96/==/DDRMumbai Dadar Western (6)•  19:46+219:48+32m52316.4166mWRMumbai, Maharashtra
97/==/BCTMumbai Central (9)  20:10+1-52322.4-3mWRMumbai 400008, Maharashtra
Scroll to Top
Scroll to Bottom